ROMMA est une association bénévole à but non lucratif. Votre soutien est indispensable : ADHERER à ROMMA ou FAIRE un DON

Briord - (01, Ain)

Bugey (281 m)   Longitude: 05° 29' 13" E   Latitude: 45° 46' 37" N Station partenaire n°15
 

Détail journalier du     <<     >>

Température Precipitation Humidité Pression Vent Dir Rafale Dir. rafale Ensol.
Heure (°C) (mm) (%) (hPa) (km/h) (km/h) (min)
01:00 23.305210131---13SSE0
02:00 20.2061101306ESE0
03:00 20.5060101305S0
04:00 18.8069101203ESE0
05:00 17.7076101200---0
06:00 16.9078101203NE0
07:00 16.6083101103E0
08:00 17.4086101103ESE0
09:00 23.207010111SE8SSE40
10:00 24.806310117SE18SE60
11:00 26.705910117SE23SE60
12:00 28.505210119SE26SSE60
13:00 30.904410115SE23SE60
14:00 30.204810116OSO27ONO25
15:00 31.804410116O31SO50
16:00 32.404210106SSE32SE60
17:00 33.103910107SSE34SE60
18:00 32.903810103S21S60
19:00 30.704410103SE26ONO40
20:00 29.104910104SE23SSE25
21:00 28.005010102SSE23SSE0
22:00 26.605910132S27NO0
23:00 23.407710131---24NNO0
minuit 21.108510141---19O0

Graphique du 18-08-2019

 

Serveur OMMA